Flying American Virtual Airport Information Service

New York John F. Kennedy International Airport

ICAO: KJFK Country: United States
Latitude: 40.6398 Longitude: -73.7789
Latest Arrival : AALJUMP (KORD-KJFK) Latest Departure : AALJUMP (KJFK-EGLL)


WX CaptureLIVE
Data provided by noaa.gov | Fetched at 07:35:36

METAR : KJFK 310651Z 32017G22KT 10SM FEW045 18/08 A2995 RMK AO2 PK WND 34026/0630 SLP141 T01780083

TAF : KJFK 310522Z 3106/0112 33013G20KT P6SM FEW070 FM311200 33016G24KT P6SM FEW050 FM311700 31014G20KT P6SM FEW050 FM010400 34012KT P6SM FEW080 FM010700 31009KT P6SM FEW080


Runway Data for KJFK
Data provided by openaviationdata.com

Runway ID Mag Var Hdg Length Elevation Surface ILS Freq ILS Id ILS Slope
04L -14 44° 11353 ft 13 ft Asphalt 110.9 IHIQ 3
04R -14 44° 8401 ft 13 ft Asphalt 109.5 IJFK 3
13L -14 134° 9992 ft 13 ft Asphalt 111.5 ITLK 3
13R -14 134° 14564 ft 13 ft Asphalt -- -- --
22L -14 224° 8401 ft 13 ft Asphalt 110.9 IIWY 3
22R -14 224° 11353 ft 13 ft Asphalt 109.5 IJOC 3
31L -14 314° 14564 ft 13 ft Asphalt 111.35 IMOH 3
31R -14 314° 9992 ft 13 ft Asphalt 111.5 IRTH 3

New York John F. Kennedy International Airport, United States
Use only for reference purposes



Not for navigational purposes.